Flag for Canada Weather past 2 weeks in Prince Albert, Saskatchewan, Canada

Now
61 °F

Passing clouds.


Feels Like: 61 °F
Forecast: 53 / 78 °F
Wind: No wind

Location: Prince Albert

Current Time: Jul 22, 2014 at 10:18:59 PM

Latest Report: Jul 22, 2014 at 10:00 PM


Visibility: 12 mi

Pressure: 30.26 "Hg

Humidity: 88%

Dew point: 57 °F

Location of Prince AlbertLocation

Historic Weather in Prince Albert — Graph

°F

Prince Albert temperature yesterday

Maximum temperature yesterday: 73 °F (at 2:00 PM)
Minimum temperature yesterday: 46 °F (at 5:00 AM)
Average temperature yesterday: 62 °F

Past Weeks' High & Low Weather Summary

 TemperatureHumidityPressure
High81 °F (Jul 9, 3:00 PM)100% (Jul 8, 3:00 AM)30.41 "Hg (Jul 8, 3:00 AM)
Low43 °F (Jul 14, 3:00 AM)33% (Jul 12, 7:00 PM)29.49 "Hg (Jul 19, 8:00 PM)
Average64 °F73%29.91 "Hg
* Reported Jul 7 9:00 PM — Jul 22 9:00 PM, Prince Albert, Weather by CustomWeather, © 2014

Note: Actual official high and low records may vary slightly from our data, if they occured in-between our weather recording intervals... More about our weather records

Advertising

Prince Albert weather history for previous 24 hours

 ConditionsComfort  
Time TempWeatherWind HumidityBarometerVisibility
9:00 PM
Jul 22
64 °FPassing clouds.3 mph78%30.25 "Hg12 mi
8:00 PM70 °FPassing clouds.3 mph64%30.24 "Hg12 mi
7:00 PM73 °FScattered clouds.6 mph50%30.25 "Hg15 mi
6:00 PM75 °FPartly sunny.6 mph47%30.25 "Hg15 mi
5:00 PM75 °FPartly sunny.No wind41%30.25 "Hg12 mi
10:00 AM66 °FHigh level clouds.2 mph73%30.22 "Hg15 mi
9:00 AM63 °FHigh level clouds.3 mph77%30.21 "Hg15 mi
8:00 AM57 °FPartly sunny.2 mph88%30.20 "Hg15 mi
7:00 AM54 °FPartly sunny.No wind94%30.19 "Hg15 mi
6:00 AM48 °FScattered clouds.No wind94%30.18 "Hg15 mi
5:00 AM46 °FFog.2 mph100%30.16 "Hg2 mi
4:00 AM48 °FFog.2 mph100%30.13 "Hg2 mi
3:00 AM50 °FPassing clouds.No wind100%30.11 "Hg10 mi
2:00 AM52 °FPassing clouds.No wind94%30.09 "Hg10 mi
1:00 AM54 °FPassing clouds.No wind94%30.07 "Hg10 mi
12:00 AM54 °FPassing clouds.No wind94%30.06 "Hg10 mi
11:00 PM
Jul 21
55 °FPassing clouds.No wind94%30.03 "Hg8 mi
10:00 PM61 °FPartly cloudy.No wind88%30.01 "Hg8 mi
Weather by CustomWeather, © 2014

See weather overviewHow to use our weather pages